星链-33655 (STARLINK-33655)

导读

STARLINK-33655是美国于2025年3月31日发射的SpaceX星链卫星,星链项目旨在构建全球卫星互联网星座,为全球用户提供高速低延迟的宽带网络服务。该卫星的发射进一步扩充了星链星座的在轨卫星数量,有助于提升星座网络的覆盖范围与服务能力,推动全球互联网络布局完善。

Basic Information
目录编号:
63424
目录名称:
STARLINK-33655
国际标识:
2025-065AB
轨道中心:
EARTH
卫星名称:
星链-33655
卫星全名:
星链-33655 (STARLINK-33655)
卫星状态:
在轨 (已飞行522 天)
发射日期:
2025-03-31 UTC
国别 :
美国 (US)
星等 :
--
Orbit Information
数据来源 国际轨道数据
星历时间: 2026-09-03T12:51:40+0800
1天前
查看轨道信息
半长轴: 6861.151km
偏心率: 0.0001556
轨道倾角: 43.002°
近地点辐角 267.199°
升交点赤经 184.905°
平近点角 92.868°
近地点: 481.946km
远地点: 484.082km
周期: 94.266分钟
每日圈数: 15.275919
Detailed Information
固有亮度:
5
最大亮度:
2.5
卫星平台:
Starlink V1.0
覆盖范围:
全球
运营商:
太空探索技术公司
运营商所在国:
美国
制造商(研发单位):
太空探索技术公司
制造商所在国:
美国
使用方式:
暂无
Satellite Introduction
Starlink 计划是 SpaceX 推出的全球卫星互联网项目,通过发射低轨道卫星,为全球尤其是偏远地区提供高速、低延迟的互联网服务。自 2019 年起,Starlink 已部署数千颗卫星,旨在缩小全球数字鸿沟,推动互联网普及。该项目还为军事、航空等行业提供通信支持,带来广泛经济效益。
2D Orbit Map
3D Orbit Map
Orbit Altitude Analysis Chart
Orbit Inclination Analysis Chart
Orbit Comprehensive Analysis Chart
View Comprehensive Chart
Conjunction Data List
Event ID Objects TCA Miss Dist (km) Collision Risk Probability Collision Risk Index (CRI) Action
CDM_260905-045805-726306-342421
2026-09-05T
04:58:53+0000
0.528 km
远距离
1.088572E-4 高风险 0.76
CDM_260905-091905-734006-342421
2026-09-05T
09:19:38+0000
1.223 km
极远距离
1.018115E-5 中风险 0.55
CDM_260905-074505-734006-342421
2026-09-05T
07:45:29+0000
1.390 km
极远距离
6.571716E-6 低风险 0.51
CDM_260831-024706-342406-409221
OBJECT F (64092)
2026-08-31T
02:47:04+0000
2.360 km
极远距离
1.797179E-6 低风险 0.4
CDM_260905-070005-510906-342421
2026-09-05T
07:00:20+0000
2.741 km
极远距离
1.480615E-6 低风险 0.38
CDM_260905-032405-726306-342421
2026-09-05T
03:24:44+0000
2.203 km
极远距离
1.372989E-6 低风险 0.38
CDM_260905-010905-764806-342421
2026-09-05T
01:09:59+0000
1.641 km
极远距离
1.188043E-6 低风险 0.36
CDM_260905-063305-726306-342421
2026-09-05T
06:33:02+0000
2.945 km
极远距离
8.588274E-7 极低风险 0.34
CDM_260904-233505-764806-342421
2026-09-04T
23:35:50+0000
2.087 km
极远距离
6.739657E-7 极低风险 0.32
CDM_260905-002205-764806-342421
2026-09-05T
00:22:54+0000
2.252 km
极远距离
5.831725E-7 极低风险 0.3